Hourly Data Report for August 24, 2017

TORONTO CITY
ONTARIO

43°40'00.000" N
79°24'00.000" W
112.50 m
6158355
71508
XTO

Download Data

Hourly Data (August 2017)
Hourly Data Report for August 24, 2017
TIME
LST
Temp Definition
°C
Dew Point Definition
°C
Rel Hum Definition
%
Precip. Amount Definition
mm

Wind Dir Definition
10's deg

Wind Spd Definition
km/h
Visibility Definition
km
Stn Press Definition
kPa
Hmdx Definition


Wind Chill Definition


Weather Definition


00:00 15.2 9.5 69 0.0 LegendMM LegendMM   100.07     LegendNANA
01:00 14.6 9.7 73 0.0 LegendMM LegendMM   100.06     LegendNANA
02:00 14.0 9.6 75 0.0 LegendMM LegendMM   100.09     LegendNANA
03:00 13.7 9.9 78 0.0 LegendMM LegendMM   100.10     LegendNANA
04:00 13.4 9.8 79 0.0 LegendMM LegendMM   100.13     LegendNANA
05:00 13.3 10.0 80 0.0 LegendMM LegendMM   100.16     LegendNANA
06:00 13.8 10.2 79 0.0 LegendMM LegendMM   100.20     LegendNANA
07:00 14.8 10.7 77 0.0 LegendMM LegendMM   100.24     LegendNANA
08:00 16.3 11.2 72 0.0 LegendMM LegendMM   100.29     LegendNANA
09:00 17.1 10.1 63 0.0 LegendMM LegendMM   100.32     LegendNANA
10:00 18.0 9.4 57 0.0 LegendMM LegendMM   100.35     LegendNANA
11:00 18.0 9.6 58 0.0 LegendMM LegendMM   100.37     LegendNANA
12:00 18.8 9.4 54 0.0 LegendMM LegendMM   100.33     LegendNANA
13:00 18.2 10.4 60 0.0 LegendMM LegendMM   100.35     LegendNANA
14:00 19.3 8.4 49 0.0 LegendMM LegendMM   100.36     LegendNANA
15:00 19.5 10.1 55 0.0 LegendMM LegendMM   100.35     LegendNANA
16:00 18.5 11.1 62 0.0 LegendMM LegendMM   100.34     LegendNANA
17:00 18.5 10.8 61 0.0 LegendMM LegendMM   100.35     LegendNANA
18:00 17.6 10.2 62 0.0 LegendMM LegendMM   100.37     LegendNANA
19:00 17.4 9.7 61 0.0 LegendMM LegendMM   100.41     LegendNANA
20:00 16.5 11.0 70 0.0 LegendMM LegendMM   100.44     LegendNANA
21:00 16.6 8.8 60 0.0 LegendMM LegendMM   100.50     LegendNANA
22:00 15.8 8.6 62 0.0 LegendMM LegendMM   100.53     LegendNANA
23:00 15.0 8.4 64 0.0 LegendMM LegendMM   100.54     LegendNANA

Notes on Data Quality.

Legend

  • E = Estimated
  • M = Missing
  • NA = Not Available*
  • [empty] = Indicates an unobserved value
Date modified: